Weather History for KRHI - October, 2011

Change the Weather History Date:

Friday, October 21, 2011

  Actual Average Record
Temperature  
Mean Temperature 41 °F 42 °F  
Max Temperature 54 °F 52 °F 85 °F (1947)
Min Temperature 28 °F 33 °F 18 °F (1930)
Degree Days  
Heating Degree Days 24 23  
Month to date heating degree days 255 412  
Since 1 July heating degree days 609 844  
Cooling Degree Days 0 0  
Month to date cooling degree days 10 0  
Year to date cooling degree days 321 259  
Moisture  
Dew Point 29 °F    
Average Humidity 64    
Maximum Humidity 92    
Minimum Humidity 35    
Precipitation  
Precipitation 0.00 in 0.09 in 1.22 in (1943)
Month to date precipitation 0.92 2.28  
Year to date precipitation 24.08 27.36  
Snow  
Snow 0.00 in - 6.00 in (2002)
Month to date snowfall T  
Since 1 July snowfall T  
Since 1 September snowfall T  
Snow Depth 0.00 in    
Sea Level Pressure  
Sea Level Pressure 30.00 in    
Wind  
Wind Speed 4 mph (West)    
Max Wind Speed 12 mph    
Max Gust Speed 16 mph    
Visibility 10 miles    
Events      
T = Trace of Precipitation, MM = Missing Value Source: NWS Daily Summary

Daily Weather History Graph

Daily Weather History Graph

Search for Another Location

Airport or City:

Trip Planner

Search our weather history database for the weather conditions in past years. The results will help you decide how hot, cold, wet, or windy it might be!

Date:

Astronomy

Oct. 21, 2011 Rise Set
Actual Time 7:22 AM CDT 6:02 PM CDT
Civil Twilight 6:51 AM CDT 6:32 PM CDT
Nautical Twilight 6:17 AM CDT 7:07 PM CDT
Astronomical Twilight 5:42 AM CDT 7:41 PM CDT
Moon 12:54 AM CDT (10/21) 3:02 PM CDT (10/21)
Length of Visible Light 11h 40m
Length of Day
10h 40m
Waning Crescent, 33% of the Moon is Illuminated
Oct 21
Waning Crescent
Oct 26
New
Nov 2
First Quarter
Nov 10
Full
Nov 18
Last Quarter

Hourly Weather History & Observations

Time (CDT) Temp. Windchill Dew Point Humidity Pressure Visibility Wind Dir Wind Speed Gust Speed Precip Events Conditions
12:22 AM 37.4 °F 32.8 °F 30.2 °F 75% 29.87 in 10.0 mi Variable 5.8 mph - N/A   Mostly Cloudy
12:53 AM 37.9 °F 35.5 °F 30.0 °F 73% 29.93 in 10.0 mi Variable 3.5 mph - N/A   Mostly Cloudy
1:53 AM 37.9 °F 34.4 °F 30.0 °F 73% 29.94 in 10.0 mi Variable 4.6 mph - N/A   Overcast
2:53 AM 37.9 °F 35.5 °F 30.0 °F 73% 29.96 in 10.0 mi NNW 3.5 mph - N/A   Overcast
3:53 AM 35.1 °F 31.0 °F 30.9 °F 85% 29.97 in 10.0 mi WNW 4.6 mph - N/A   Overcast
4:53 AM 34.0 °F 29.8 °F 30.9 °F 89% 29.98 in 10.0 mi West 4.6 mph - N/A   Overcast
5:53 AM 34.0 °F 29.8 °F 30.9 °F 89% 29.99 in 10.0 mi West 4.6 mph - N/A   Overcast
6:45 AM 32.0 °F - 30.2 °F 93% 29.95 in 10.0 mi Calm Calm - N/A   Scattered Clouds
7:53 AM 28.9 °F 23.9 °F 27.0 °F 92% 30.03 in 10.0 mi West 4.6 mph - N/A   Partly Cloudy
8:38 AM 35.6 °F 32.8 °F 30.2 °F 81% 29.99 in 10.0 mi WNW 3.5 mph - N/A   Mostly Cloudy
8:53 AM 36.0 °F 32.1 °F 32.0 °F 86% 30.04 in 10.0 mi WNW 4.6 mph - N/A   Overcast
10:51 AM 42.8 °F 38.6 °F 32.0 °F 66% 30.00 in 10.0 mi NW 6.9 mph - N/A   Scattered Clouds
10:53 AM 42.1 °F 37.7 °F 32.0 °F 67% 30.04 in 10.0 mi NW 6.9 mph - N/A   Partly Cloudy
11:53 AM 46.0 °F 41.0 °F 32.0 °F 58% 30.04 in 10.0 mi West 10.4 mph 16.1 mph N/A   Clear
12:53 PM 46.9 °F - 32.0 °F 56% 30.01 in 10.0 mi Calm Calm - N/A   Clear
1:53 PM 51.1 °F - 30.0 °F 44% 30.00 in 10.0 mi West 8.1 mph - N/A   Clear
2:53 PM 51.1 °F - 28.9 °F 43% 30.01 in 10.0 mi West 4.6 mph - N/A   Clear
3:53 PM 53.1 °F - 28.0 °F 38% 30.00 in 10.0 mi WSW 8.1 mph - N/A   Clear
4:53 PM 53.1 °F - 27.0 °F 37% 30.00 in 10.0 mi SW 5.8 mph - N/A   Clear
5:53 PM 46.9 °F - 26.1 °F 44% 30.01 in 10.0 mi SW 3.5 mph - N/A   Clear
6:53 PM 39.9 °F - 26.1 °F 58% 30.03 in 10.0 mi Calm Calm - N/A   Clear
7:53 PM 39.0 °F 35.7 °F 25.0 °F 57% 30.04 in 10.0 mi West 4.6 mph - N/A   Clear
8:53 PM 42.1 °F 40.2 °F 27.0 °F 55% 30.03 in 10.0 mi WSW 3.5 mph - N/A   Clear
9:53 PM 41.0 °F - 27.0 °F 57% 30.02 in 10.0 mi Calm Calm - N/A   Clear
10:53 PM 39.9 °F 37.8 °F 28.9 °F 65% 30.02 in 10.0 mi SW 3.5 mph - N/A   Clear
11:53 PM 39.9 °F 36.7 °F 28.9 °F 65% 30.01 in 10.0 mi WSW 4.6 mph - N/A   Clear